• In Russia
  • List of Countries
  • For 7 days
  • Water Temperature
  • Satellite Maps
  • Weather Map
  • Weather Widgets
  • user-avatar
    Login

    Hourly Weather Graz

    Today, 23 January, Wednesday

    Time Temperature Precipitation Wind Pressure Humidity
    00:00 -4°C° 0.1 mm 0 mps 715 mmHg 80%
    01:00 -5°C° 0 mm 0 mps 714 mmHg 81%
    02:00 -5°C° 0.1 mm 0 mps 713 mmHg 81%
    03:00 -5°C° 0.1 mm 0 mps 713 mmHg 81%
    04:00 -5°C° 0.1 mm 0 mps 712 mmHg 81%
    05:00 -5°C° 0.2 mm 0 mps 712 mmHg 82%
    06:00 -5°C° 0.2 mm 0 mps 712 mmHg 83%
    07:00 -4°C° 0 mm 1 mps 712 mmHg 88%
    08:00 -4°C° 0.3 mm 1 mps 712 mmHg 86%
    09:00 -3°C° 0.3 mm 1 mps 711 mmHg 84%
    10:00 -3°C° 0.3 mm 1 mps 711 mmHg 82%
    11:00 -2°C° 0 mm 1 mps 711 mmHg 79%
    12:00 -1°C° 0 mm 1 mps 711 mmHg 76%
    13:00 -1°C° 0 mm 1 mps 710 mmHg 73%
    14:00 -1°C° 0 mm 1 mps 710 mmHg 75%
    15:00 -1°C° 0 mm 1 mps 710 mmHg 78%
    16:00 -2°C° 0 mm 1 mps 710 mmHg 81%
    17:00 -2°C° 0 mm 1 mps 710 mmHg 84%
    18:00 -3°C° 0 mm 1 mps 710 mmHg 87%
    19:00 -4°C° 0 mm 0 mps 710 mmHg 91%
    20:00 -4°C° 0 mm 0 mps 711 mmHg 91%
    21:00 -4°C° 0 mm 0 mps 711 mmHg 91%
    22:00 -4°C° 0 mm 0 mps 711 mmHg 91%
    23:00 -5°C° 0 mm 0 mps 712 mmHg 91%

    Tomorrow, 24 January, Thursday

    Time Temperature Precipitation Wind Pressure Humidity
    00:00 -5°C° 0 mm 0 mps 712 mmHg 91%
    01:00 -5°C° 0 mm 0 mps 712 mmHg 91%
    02:00 -5°C° 0 mm 0 mps 712 mmHg 90%
    03:00 -4°C° 0 mm 1 mps 712 mmHg 89%
    04:00 -4°C° 0 mm 1 mps 712 mmHg 88%
    05:00 -4°C° 0 mm 1 mps 713 mmHg 86%
    06:00 -4°C° 0 mm 1 mps 713 mmHg 85%
    07:00 -4°C° 0 mm 1 mps 713 mmHg 83%
    08:00 -3°C° 0 mm 1 mps 713 mmHg 79%
    09:00 -2°C° 0 mm 1 mps 714 mmHg 76%
    10:00 -1°C° 0 mm 1 mps 714 mmHg 72%
    11:00 0°C° 0 mm 1 mps 714 mmHg 69%
    12:00 +1°C° 0 mm 1 mps 714 mmHg 66%
    13:00 +3°C° 0 mm 1 mps 714 mmHg 63%
    14:00 +2°C° 0 mm 1 mps 714 mmHg 67%
    15:00 +2°C° 0 mm 1 mps 714 mmHg 71%
    16:00 +1°C° 0 mm 1 mps 714 mmHg 74%
    17:00 0°C° 0 mm 1 mps 715 mmHg 77%
    18:00 -1°C° 0 mm 1 mps 715 mmHg 80%
    19:00 -4°C° 0 mm 2 mps 715 mmHg 83%
    20:00 -4°C° 0 mm 2 mps 716 mmHg 81%
    21:00 -5°C° 0 mm 2 mps 716 mmHg 79%
    22:00 -5°C° 0 mm 2 mps 716 mmHg 77%
    23:00 -5°C° 0 mm 2 mps 716 mmHg 76%

    Day after tomorrow, 25 January, Friday

    Time Temperature Precipitation Wind Pressure Humidity
    00:00 -5°C° 0 mm 2 mps 717 mmHg 75%
    01:00 -5°C° 0 mm 2 mps 717 mmHg 75%
    02:00 -5°C° 0 mm 2 mps 717 mmHg 75%
    03:00 -5°C° 0 mm 2 mps 717 mmHg 75%
    04:00 -5°C° 0 mm 2 mps 717 mmHg 75%
    05:00 -5°C° 0 mm 2 mps 717 mmHg 75%
    06:00 -5°C° 0 mm 2 mps 717 mmHg 75%
    07:00 -5°C° 0 mm 2 mps 717 mmHg 75%
    08:00 -4°C° 0 mm 2 mps 717 mmHg 72%
    09:00 -3°C° 0 mm 2 mps 717 mmHg 68%
    10:00 -3°C° 0 mm 2 mps 718 mmHg 65%
    11:00 -2°C° 0 mm 2 mps 718 mmHg 62%
    12:00 -1°C° 0 mm 2 mps 718 mmHg 59%
    13:00 +1°C° 0 mm 2 mps 718 mmHg 56%
    14:00 +1°C° 0 mm 2 mps 718 mmHg 59%
    15:00 -1°C° 0 mm 2 mps 718 mmHg 62%
    16:00 -1°C° 0 mm 2 mps 718 mmHg 65%
    17:00 -2°C° 0 mm 2 mps 719 mmHg 68%
    18:00 -3°C° 0 mm 2 mps 719 mmHg 70%
    19:00 -4°C° 0 mm 2 mps 720 mmHg 73%
    20:00 -4°C° 0 mm 2 mps 720 mmHg 72%
    21:00 -4°C° 0 mm 2 mps 721 mmHg 71%
    22:00 -6°C° 0 mm 3 mps 721 mmHg 70%
    23:00 -5°C° 0 mm 2 mps 721 mmHg 71%

    26 January, Saturday

    Time Temperature Precipitation Wind Pressure Humidity
    00:00 -5°C° 0 mm 2 mps 721 mmHg 71%
    01:00 -5°C° 0 mm 2 mps 722 mmHg 72%
    02:00 -6°C° 0 mm 2 mps 722 mmHg 72%
    03:00 -6°C° 0 mm 2 mps 721 mmHg 73%
    04:00 -6°C° 0 mm 2 mps 721 mmHg 73%
    05:00 -6°C° 0 mm 2 mps 722 mmHg 73%
    06:00 -6°C° 0 mm 2 mps 722 mmHg 73%
    07:00 -8°C° 0 mm 3 mps 722 mmHg 72%
    08:00 -5°C° 0 mm 2 mps 723 mmHg 68%
    09:00 -4°C° 0 mm 2 mps 723 mmHg 63%
    10:00 -3°C° 0 mm 2 mps 723 mmHg 59%
    11:00 -2°C° 0 mm 2 mps 722 mmHg 56%
    12:00 -1°C° 0 mm 2 mps 722 mmHg 53%
    13:00 +3°C° 0 mm 1 mps 722 mmHg 49%
    14:00 +2°C° 0 mm 1 mps 721 mmHg 54%
    15:00 +2°C° 0 mm 1 mps 721 mmHg 59%
    16:00 +2°C° 0 mm 1 mps 720 mmHg 63%
    17:00 0°C° 0 mm 1 mps 720 mmHg 67%
    18:00 -1°C° 0 mm 1 mps 720 mmHg 71%
    19:00 -2°C° 0 mm 1 mps 720 mmHg 75%
    20:00 -3°C° 0 mm 1 mps 719 mmHg 73%
    21:00 -3°C° 0 mm 1 mps 719 mmHg 71%
    22:00 -3°C° 0 mm 1 mps 719 mmHg 69%
    23:00 -3°C° 0 mm 1 mps 718 mmHg 68%

    27 January, Sunday

    Time Temperature Precipitation Wind Pressure Humidity
    00:00 -3°C° 0 mm 1 mps 717 mmHg 67%
    01:00 -3°C° 0 mm 1 mps 717 mmHg 66%
    02:00 -3°C° 0 mm 1 mps 716 mmHg 66%
    03:00 -4°C° 0 mm 1 mps 716 mmHg 66%
    04:00 -4°C° 0 mm 1 mps 715 mmHg 66%
    05:00 -4°C° 0 mm 1 mps 715 mmHg 67%
    06:00 -4°C° 0 mm 1 mps 714 mmHg 67%
    07:00 -4°C° 0 mm 1 mps 714 mmHg 68%
    08:00 -4°C° 0 mm 0 mps 714 mmHg 63%
    09:00 -2°C° 0 mm 0 mps 714 mmHg 59%
    10:00 -1°C° 0 mm 0 mps 714 mmHg 55%
    11:00 +1°C° 0 mm 0 mps 713 mmHg 52%
    12:00 +2°C° 0 mm 0 mps 713 mmHg 50%
    13:00 +3°C° 0 mm 0 mps 713 mmHg 47%
    14:00 +3°C° 0 mm 1 mps 713 mmHg 52%
    15:00 +2°C° 0 mm 1 mps 713 mmHg 57%
    16:00 +2°C° 0 mm 1 mps 713 mmHg 61%
    17:00 -1°C° 0 mm 0 mps 713 mmHg 66%
    18:00 -2°C° 0 mm 0 mps 713 mmHg 72%
    19:00 -3°C° 0 mm 0 mps 713 mmHg 77%
    20:00 -3°C° 0 mm 0 mps 714 mmHg 78%
    21:00 -3°C° 0 mm 0 mps 714 mmHg 78%
    22:00 -3°C° 0 mm 0 mps 715 mmHg 79%
    23:00 -3°C° 0 mm 0 mps 715 mmHg 79%

    28 January, Monday

    Time Temperature Precipitation Wind Pressure Humidity
    00:00 -2°C° 0 mm 0 mps 715 mmHg 80%
    01:00 -2°C° 0 mm 0 mps 715 mmHg 80%
    02:00 -2°C° 0 mm 0 mps 715 mmHg 81%
    03:00 -2°C° 0 mm 0 mps 715 mmHg 82%
    04:00 -2°C° 0 mm 0 mps 715 mmHg 82%
    05:00 -2°C° 0.1 mm 0 mps 715 mmHg 83%
    06:00 -2°C° 0.1 mm 0 mps 715 mmHg 85%
    07:00 -2°C° 0.1 mm 0 mps 715 mmHg 86%
    08:00 -2°C° 0.2 mm 0 mps 716 mmHg 84%
    09:00 -1°C° 0.2 mm 0 mps 716 mmHg 83%
    10:00 -1°C° 0.2 mm 0 mps 716 mmHg 81%
    11:00 0°C° 0.2 mm 0 mps 716 mmHg 81%
    12:00 0°C° 0.2 mm 0 mps 716 mmHg 80%
    13:00 +2°C° 0.2 mm 1 mps 715 mmHg 80%
    14:00 0°C° 0.6 mm 0 mps 715 mmHg 84%
    15:00 0°C° 0.6 mm 0 mps 715 mmHg 88%
    16:00 -1°C° 0.6 mm 0 mps 715 mmHg 92%
    17:00 -1°C° 0.9 mm 0 mps 716 mmHg 93%
    18:00 0°C° 0.9 mm 1 mps 716 mmHg 95%
    19:00 0°C° 0.9 mm 1 mps 717 mmHg 96%
    20:00 0°C° 0.5 mm 1 mps 717 mmHg 96%
    21:00 0°C° 0.5 mm 1 mps 717 mmHg 95%
    22:00 0°C° 0.5 mm 1 mps 717 mmHg 94%
    23:00 0°C° 0.2 mm 1 mps 717 mmHg 94%
    Show more